Flag for Canada Weather past 2 weeks in Hopedale, Newfoundland and Labrador, Canada

Now
2 °F

Frigid.


Feels Like: -13 °F
Forecast: -5 / 14 °F
Wind: 9 mph from Southwest

Location: Hopedale

Current Time: Mar 1, 2015 at 9:38:14 PM

Latest Report: Mar 1, 2015 at 9:00 PM


Visibility: N/A

Pressure: 29.99 "Hg

Humidity: 68%

Dew point: -6 °F

Location of HopedaleLocation

Historic Weather in Hopedale — Graph

°F

Hopedale temperature yesterday

Maximum temperature yesterday: -6 °F (at 3:00 PM)
Minimum temperature yesterday: -18 °F (at 7:00 AM)
Average temperature yesterday: -11 °F

Past Weeks' High & Low Weather Summary

 TemperatureHumidityPressure
High27 °F (Feb 20, 7:00 PM)100% (Feb 21, 3:00 AM)30.16 "Hg (Feb 21, 3:00 AM)
Low-18 °F (Feb 28, 7:00 AM)47% (Feb 27, 2:00 PM)28.79 "Hg (Feb 21, 2:00 AM)
Average-2 °F69%29.81 "Hg
* Reported Feb 14 8:00 PM — Mar 1 8:00 PM, Hopedale, Weather by CustomWeather, © 2015

Note: Actual official high and low records may vary slightly from our data, if they occured in-between our weather recording intervals... More about our weather records

Advertising

Hopedale weather history for previous 24 hours

 ConditionsComfort  
Time TempWeatherWind HumidityBarometerVisibility
8:00 PM
Sun, Mar 1
2 °FFrigid.9 mph70%30.01 "HgN/A
7:00 PM3 °FFrigid.12 mph68%30.03 "HgN/A
6:00 PM5 °FFrigid.9 mph66%30.03 "HgN/A
5:00 PM7 °FFrigid.6 mph62%30.05 "HgN/A
4:00 PM9 °FFrigid.8 mph55%30.06 "HgN/A
3:00 PM9 °FFrigid.15 mph52%30.07 "HgN/A
2:00 PM8 °FFrigid.16 mph52%30.08 "HgN/A
1:00 PM6 °FFrigid.12 mph53%30.09 "HgN/A
12:00 PM3 °FFrigid.18 mph54%30.10 "HgN/A
11:00 AM1 °FFrigid.13 mph52%30.11 "HgN/A
10:00 AM-2 °FFrigid.16 mph55%30.12 "HgN/A
9:00 AM-4 °FFrigid.20 mph52%30.12 "HgN/A
8:00 AM-6 °FFrigid.13 mph57%30.12 "HgN/A
7:00 AM-7 °FFrigid.12 mph61%30.12 "HgN/A
6:00 AMN/A9 mphN/A30.11 "HgN/A
5:00 AM-7 °FFrigid.10 mph60%30.11 "HgN/A
4:00 AM-9 °FFrigid.3 mph60%30.10 "HgN/A
3:00 AM-8 °FFrigid.5 mph58%30.09 "HgN/A
2:00 AM-8 °FFrigid.8 mph58%30.08 "HgN/A
1:00 AM-9 °FFrigid.5 mph58%30.08 "HgN/A
12:00 AM-9 °FFrigid.6 mph56%30.08 "HgN/A
11:00 PM
Sat, Feb 28
-7 °FFrigid.6 mph55%30.09 "HgN/A
10:00 PM-7 °FFrigid.13 mph60%30.09 "HgN/A
9:00 PM-8 °FFrigid.9 mph54%30.09 "HgN/A
Weather by CustomWeather, © 2015

See weather overviewHow to use our weather pages